User: anonymous   Login
Location: Unspecified
(0.0000°N, 0.0000°E)
Time: 10:29:25
(UTC+00:00)
Language:

AIST 2D - Orbit

View from above orbital plane
View from above orbital plane
View from above satellite
View from above satellite

Ground track
Ground track

The orbit data is extracted from the following two-line orbital elements,

1 41465U 16026B   21340.94169074  .00004660  00000-0  12844-3 0  9993
2 41465  97.0813 218.9941 0012272 106.9858 310.7208 15.37523299313920
Epoch (UTC): 06 December 2021 22:36:02
Eccentricity: 0.0012272
inclination: 97.0813°
perigee height: 445 km
apogee height: 462 km
right ascension of ascending node: 218.9941°
argument of perigee: 106.9858°
revolutions per day: 15.37523299
mean anomaly at epoch: 310.7208°
orbit number at epoch: 31392

The dashed part of the orbit path shows where the satellite is in the earth's shadow,  

DLR